WH7F Weather Reports


Display with metric or nautical units.
time (UTC)temp
F
wind
direction
speed
MPH
gust
MPH
rain 1hr
in
rain 24hr
in
rain mn
in
humidity
%
barometer
mb
20260505022522 60 0.0 1.0 0.00 0.00 0.00 53 1011.3
20260505021519 60 198 0.0 1.0 0.00 0.00 0.00 53 1011.4
20260505020518 60 220 1.0 3.0 0.00 0.00 0.00 52 1011.3
20260505015519 60 194 0.0 3.0 0.00 0.00 0.00 50 1011.0
20260505014528 61 0.0 0.0 0.00 0.00 0.00 49 1011.2
20260505013519 61 0.0 0.0 0.00 0.00 0.00 48 1011.1
20260505012518 62 225 0.0 0.0 0.00 0.00 0.00 47 1011.0
20260505011519 62 239 0.0 1.0 0.00 0.00 0.00 47 1010.7
20260505010558 62 245 0.0 1.0 0.00 0.00 0.00 46 1010.6
20260505005519 63 237 0.0 1.0 0.00 0.00 0.00 44 1010.5
20260505004538 63 205 0.0 2.0 0.00 0.00 0.00 43 1010.5
20260505003521 64 207 0.0 0.0 0.00 0.00 0.00 42 1010.6
20260505002528 64 241 0.0 2.0 0.00 0.00 0.00 42 1010.4
20260505001516 65 0.0 0.0 0.00 0.00 0.00 40 1010.6
20260505000522 65 0.0 1.0 0.00 0.00 0.00 40 1010.4
20260504235521 66 212 0.0 1.0 0.00 0.00 0.00 39 1010.6
20260504234520 67 187 0.0 2.0 0.00 0.00 0.00 37 1010.5
20260504233523 68 183 1.0 3.0 0.00 0.00 0.00 37 1010.4
20260504232526 68 136 1.0 3.0 0.00 0.00 0.00 35 1010.4
20260504231517 69 172 1.0 5.0 0.00 0.00 0.00 33 1010.5
20260504230526 70 157 2.0 6.0 0.00 0.00 0.00 33 1010.5
20260504225517 70 144 1.0 2.0 0.00 0.00 0.00 31 1010.3
20260504224524 71 170 2.0 5.0 0.00 0.00 0.00 31 1010.4
20260504223521 72 163 2.0 6.0 0.00 0.00 0.00 30 1010.6
20260504222518 73 201 2.0 8.0 0.00 0.00 0.00 29 1010.4
20260504221521 75 178 2.0 7.0 0.00 0.00 0.00 25 1010.5
20260504220528 79 183 2.0 6.0 0.00 0.00 0.00 21 1010.4
20260504215520 85 198 2.0 3.0 0.00 0.00 0.00 20 1010.5
20260504214526 88 205 1.0 4.0 0.00 0.00 0.00 21 1010.5
20260504213521 89 190 3.0 4.0 0.00 0.00 0.00 20 1010.6
20260504212520 92 189 2.0 8.0 0.00 0.00 0.00 20 1010.6
20260504211521 94 177 2.0 5.0 0.00 0.00 0.00 20 1010.5
20260504210518 94 179 2.0 9.0 0.00 0.00 0.00 20 1010.5
20260504205521 94 213 2.0 3.0 0.00 0.00 0.00 20 1010.7
20260504204528 94 97 2.0 9.0 0.00 0.00 0.00 20 1010.6
20260504203517 94 158 2.0 8.0 0.00 0.00 0.00 20 1010.6
20260504202522 94 215 2.0 4.0 0.00 0.00 0.00 20 1010.8
20260504201521 95 136 1.0 4.0 0.00 0.00 0.00 20 1010.9
20260504200540 94 243 1.0 3.0 0.00 0.00 0.00 20 1010.9
20260504195521 92 144 2.0 4.0 0.00 0.00 0.00 20 1011.1
20260504194516 90 216 2.0 4.0 0.00 0.00 0.00 20 1011.2
20260504193518 88 144 2.0 5.0 0.00 0.00 0.00 20 1011.4
20260504192525 87 126 2.0 4.0 0.00 0.00 0.00 20 1011.6
20260504191516 86 259 2.0 3.0 0.00 0.00 0.00 20 1011.7
20260504190523 88 117 1.0 8.0 0.00 0.00 0.00 21 1011.8
20260504185516 93 220 2.0 5.0 0.00 0.00 0.00 17 1012.1
20260504184516 97 224 2.0 5.0 0.00 0.00 0.00 17 1012.3
20260504183540 97 191 2.0 5.0 0.00 0.00 0.00 17 1012.4
20260504182527 96 179 2.0 4.0 0.00 0.00 0.00 18 1012.4
20260504181520 96 173 2.0 5.0 0.00 0.00 0.00 19 1012.6
20260504180518 96 127 2.0 2.0 0.00 0.00 0.00 20 1012.6
20260504175520 95 182 2.0 7.0 0.00 0.00 0.00 19 1012.8
20260504174520 96 194 1.0 6.0 0.00 0.00 0.00 20 1012.9
20260504173520 96 229 1.0 4.0 0.00 0.00 0.00 20 1013.1
20260504172518 94 138 1.0 3.0 0.00 0.00 0.00 22 1013.2
20260504171520 92 156 1.0 5.0 0.00 0.00 0.00 21 1013.2
20260504170549 91 117 1.0 4.0 0.00 0.00 0.00 22 1013.2
20260504150517 84 153 1.0 3.0 0.00 0.00 0.00 31 1014.6
20260504140539 69 189 1.0 2.0 0.00 0.00 0.00 43 1014.9
20260504130541 56 168 2.0 3.0 0.00 0.00 0.00 50 1015.2
20260504110527 51 178 0.0 1.0 0.00 0.00 0.00 52 1015.8
20260504100519 52 176 0.0 2.0 0.00 0.00 0.00 52 1015.9
20260504081518 49 0.0 1.0 0.00 0.00 0.00 52 1016.1
20260504080525 49 0.0 0.0 0.00 0.00 0.00 52 1016.0
20260504050516 46 192 0.0 1.0 0.00 0.00 0.00 49 1016.2
20260504045540 45 189 1.0 2.0 0.00 0.00 0.00 48 1016.2
20260504044525 45 202 0.0 2.0 0.00 0.00 0.00 48 1016.3
20260504043520 45 212 0.0 1.0 0.00 0.00 0.00 47 1016.3
20260504042525 45 199 1.0 1.0 0.00 0.00 0.00 47 1016.2
20260504041524 45 206 1.0 2.0 0.00 0.00 0.00 46 1016.3
20260504040517 45 197 1.0 2.0 0.00 0.00 0.00 45 1016.3
20260504035522 45 214 1.0 1.0 0.00 0.00 0.00 44 1016.2
20260504034537 45 219 1.0 2.0 0.00 0.00 0.00 44 1016.1
20260504033521 45 195 1.0 2.0 0.00 0.00 0.00 43 1016.0
20260504032529 45 203 1.0 2.0 0.00 0.00 0.00 42 1015.9
20260504031518 45 242 1.0 2.0 0.00 0.00 0.00 41 1015.9
20260504030518 45 243 1.0 2.0 0.00 0.00 0.00 40 1015.7
20260504025544 45 238 1.0 2.0 0.00 0.00 0.00 40 1015.7
20260504024519 45 245 0.0 1.0 0.00 0.00 0.00 39 1015.8
20260504023524 45 0.0 0.0 0.00 0.00 0.00 39 1015.6